Showing default

TECHNOSAT, 42829

Orbit data source: Space-Track

TECHNOSAT, 42829 is a payload satellite owned by TUB (DE) in SSO that was launched on Fri, 14 Jul 2017 UTC via a SOYUZ-2-1A launch vehicle from the Tyuratam Missile And Space Complex (TTMTR). Payload-class satellites include a variety of spacecraft equipped with specific instruments for various scientific and technological missions. These include communications satellites like Starlink; space stations such as the ISS; scientific satellites like the Hubble; Earth observation satellites from companies like Planet Labs, Umbra, and HawkEye 360; GPS; miniature CubeSats for education and research; and military/defense satellites.

Loading next visibility...
Identifier
42829, 2017-042E
Orbit
SSO
Country
Flag of DEDE / GER
Related business
Manufacturer
TUB
Mission
Operational Amateur Technology
Bus & Motor
TUBIX20, Unknown motor
Mass
18 kg wet, 18 kg dry
Launch date (UTC)
2017-07-14 (9 years ago)
Launch vehicle
SOYUZ-2-1A
Launch site
Tyuratam Missile And Space Complex (TTMTR)
Object type
Payload
Rocket body
Debris
Shape & HBR
Oct Cyl, 1.0 m
Radar Cross Section
0.175 m², Medium (>0.1 m² and < 1m²)

Expand to show TLE details & history
Last TLE update: 16 hours ago

TLE from 16 hours ago
0 TECHNOSAT
1 42829U 17042E   26048.40465841  .00005216  00000-0  37950-3 0  9992
2 42829  97.4093 210.7908 0018531 141.0807 219.1757 15.04078460468695
Epoch: 2026-02-17T09:42Z
TLE epoch observation values (Epoch: 2026-02-17T09:42:42.486Z)
Latitude
-0.00008°
Longitude
-82.27135°
Altitude
567.375 km
Speed
7.572 km/s
True Right ascension
14h 03m 09s
True Declination
0° 00' 00"
Sunlit
Object was in full shadow at epoch
Visualization orbit readout
Latitude
Unknown
Longitude
Unknown
Altitude
Unknown
Speed
Unknown
Apparent Right ascension
Unknown
Apparent Declination
Unknown
Sunlit
N/A
Visualization observer readout
Local Sidereal Time
05:03:21
Azimuth
Unknown
Elevation
Unknown
Doppler factor
Unknown
Orbital elements
Apogee altitude
564.164 km
Perigee altitude
538.482 km
Semi-major axis
6,929.46 km
Eccentricity
0.00185
Inclination
97.4093°
RAAN
210.7908°
Arg. of periapsis
141.0807°
True anomaly
219.0418°
Mean anomaly
219.1757°
Eccentric anomaly
219.10873°
Mean motion
3.76265 °/min
Orbital period
95.68 mins
BSTAR
0.0003795
Loading maneuver chart data...
Computing Atmospheric mass density...

Documentation

Showing up to 5 results
|